User: anonymous   Login
Location: Newark
(13.5236°S, 71.9791°W)
Time: 08:37:05
(UTC+00:00)
Language:

XW-2F - Orbit

View from above orbital plane
View from above orbital plane
View from above satellite
View from above satellite

Ground track
Ground track

The orbit data is extracted from the following two-line orbital elements,

1 40910U 15049M   19290.08099553  .00000706  00000-0  38523-4 0  9991
2 40910  97.4661 292.0618 0015829 126.1914 274.9018 15.17467099225274
Epoch (UTC): 17 October 2019 01:56:38
Eccentricity: 0.0015829
inclination: 97.4661°
perigee height: 502 km
apogee height: 524 km
right ascension of ascending node: 292.0618°
argument of perigee: 126.1914°
revolutions per day: 15.17467099
mean anomaly at epoch: 274.9018°
orbit number at epoch: 22527

The dashed part of the orbit path shows where the satellite is in the earth's shadow,  

DLR